Weather History for Scottsbluff, NE

Change the Weather History Date:

Thursday, September 20, 2012

  Actual Average Record
Temperature  
Mean Temperature 62 °F 60 °F  
Max Temperature 84 °F 76 °F 95 °F (1956)
Min Temperature 40 °F 43 °F 26 °F (1983)
Degree Days  
Heating Degree Days 3 6  
Month to date heating degree days 45 73  
Since 1 July heating degree days 50 93  
Cooling Degree Days 0 1  
Month to date cooling degree days 78 52  
Year to date cooling degree days 1203 717  
Growing Degree Days 12 (Base 50)    
Moisture  
Dew Point 35 °F    
Average Humidity 50    
Maximum Humidity 85    
Minimum Humidity 15    
Precipitation  
Precipitation 0.00 in 0.04 in 0.65 in (1955)
Month to date precipitation 0.73 0.78  
Year to date precipitation 5.58 13.08  
Snow  
Snow 0.00 in 0.00 in 1.00 in (1934)
Month to date snowfall 0.0 0.2  
Since 1 July snowfall 0.0 0.2  
Snow Depth 0.00 in    
Sea Level Pressure  
Sea Level Pressure 30.02 in    
Wind  
Wind Speed 9 mph (NW)    
Max Wind Speed 26 mph    
Max Gust Speed 35 mph    
Visibility 10 miles    
Events      
T = Trace of Precipitation, MM = Missing Value Source: NWS Daily Summary

Daily Weather History Graph

Daily Weather History Graph

Search for Another Location

Airport:

Trip Planner

Search our weather history database for the weather conditions in past years. The results will help you decide how hot, cold, wet, or windy it might be!

Date:

Astronomy

Sep. 20, 2012 Rise Set
Actual Time 6:40 AM MDT 6:54 PM MDT
Civil Twilight 6:12 AM MDT 7:21 PM MDT
Nautical Twilight 5:39 AM MDT 7:54 PM MDT
Astronomical Twilight 5:06 AM MDT 8:27 PM MDT
Moon 12:06 PM MDT (9/20) 9:52 PM MDT (9/20)
Length of Visible Light 13h 09m
Length of Day
12h 13m
Waxing Crescent, 27% of the Moon is Illuminated
Sep 20
Waxing Crescent
Sep 22
First Quarter
Sep 29
Full
Oct 8
Last Quarter
Oct 15
New

Hourly Weather History & Observations

Time (MDT) Temp. Windchill Dew Point Humidity Pressure Visibility Wind Dir Wind Speed Gust Speed Precip Events Conditions
12:53 AM 48.9 °F - 35.1 °F 59% 30.06 in 10.0 mi NE 8.1 mph - N/A   Clear
1:53 AM 48.0 °F - 36.0 °F 63% 30.06 in 10.0 mi Calm Calm - N/A   Clear
2:53 AM 46.0 °F 44.8 °F 37.0 °F 71% 30.05 in 10.0 mi NNW 3.5 mph - N/A   Clear
3:53 AM 44.1 °F - 37.0 °F 76% 30.05 in 10.0 mi Calm Calm - N/A   Clear
4:53 AM 43.0 °F 41.3 °F 36.0 °F 76% 30.04 in 10.0 mi ESE 3.5 mph - N/A   Clear
5:53 AM 41.0 °F - 36.0 °F 82% 30.04 in 10.0 mi Calm Calm - N/A   Clear
6:53 AM 39.9 °F 35.1 °F 35.1 °F 83% 30.07 in 10.0 mi NW 6.9 mph - N/A   Clear
7:53 AM 43.0 °F 38.8 °F 37.9 °F 82% 30.07 in 10.0 mi NW 6.9 mph - N/A   Clear
8:53 AM 48.9 °F - 37.0 °F 64% 30.07 in 10.0 mi WNW 10.4 mph - N/A   Clear
9:53 AM 57.0 °F - 37.0 °F 47% 30.06 in 10.0 mi WNW 10.4 mph - N/A   Clear
10:53 AM 64.9 °F - 37.9 °F 37% 30.05 in 10.0 mi WNW 12.7 mph - N/A   Clear
11:53 AM 73.0 °F - 37.0 °F 27% 30.02 in 10.0 mi West 11.5 mph - N/A   Clear
12:53 PM 82.0 °F - 30.9 °F 16% 29.99 in 10.0 mi NNW 18.4 mph 28.8 mph N/A   Clear
1:53 PM 82.0 °F - 30.0 °F 15% 29.97 in 10.0 mi NW 23.0 mph 33.4 mph N/A   Clear
2:53 PM 82.9 °F - 30.9 °F 15% 29.96 in 10.0 mi NW 17.3 mph 26.5 mph N/A   Clear
3:53 PM 82.9 °F - 30.0 °F 15% 29.94 in 10.0 mi NNW 23.0 mph 28.8 mph N/A   Clear
4:53 PM 82.0 °F - 30.0 °F 15% 29.94 in 10.0 mi NNW 20.7 mph 28.8 mph N/A   Clear
5:53 PM 79.0 °F - 30.9 °F 17% 29.96 in 10.0 mi NNW 12.7 mph 21.9 mph N/A   Clear
6:53 PM 72.0 °F - 33.1 °F 24% 29.98 in 10.0 mi NW 5.8 mph - N/A   Clear
7:53 PM 66.0 °F - 34.0 °F 30% 30.00 in 10.0 mi WNW 4.6 mph - N/A   Clear
8:53 PM 63.0 °F - 36.0 °F 37% 30.02 in 10.0 mi NW 3.5 mph - N/A   Clear
9:53 PM 61.0 °F - 35.1 °F 38% 30.01 in 10.0 mi West 4.6 mph - N/A   Clear
10:53 PM 54.0 °F - 39.0 °F 57% 30.02 in 10.0 mi NW 5.8 mph - N/A   Clear
11:53 PM 54.0 °F - 37.9 °F 55% 30.01 in 10.0 mi NNW 5.8 mph - N/A   Clear